Карточка аэропорта UHMM

Внимание!
Информация на этой странице в стадии наполнения.
Если вы не увидели какой-то информации, или заметили неточность - пожалуйста сообщите нам!
Спасибо!
Команда RU-STAFF
Название аэропортаСокол
Название аэропорта (англ.)Sokol
Превышение574 ft. (175 m.)
Координаты59°54.648', 150°43.2'
Высота перехода2500m
Эшелон переходаQFE>=744mm: FL100; 744mm>QFE>=717mm: FL110; QFE<717mm: FL120
Коды ответчика6540-6577
Зона ОрВДМагадан РПИ (UHMM)
Данные METARUHMM 090800Z 34004MPS 9999 NSC M18/M28 Q1013 R10/85//50 NOSIG RMK QFE745 R28/08002MPS
Проноз погоды (TAF)UHMM 090438Z 0906/1012 30005G10MPS 9999 SCT040 OVC070 FM091000 36003G10MPS 5000 -SN BKN030 OVC070 TEMPO 0912/1001 3100 -SHSN BKN017CB OVC040
NOTAMshow/hide NOTAM
AWOS   TABLE

Информация о ВПП


Диспетчерские позиции

Позывной Наименование органа УВД Частота
UHMM_APPМагадан-Подход119.3
UHMM_TWRМагадан-Вышка120.8



Спутниковое изображение